Year,Month,Day,Hour,Minute,Value (Times are PST for temperature in C)
2019,06,11,00,00,14.40
2019,06,11,00,01,14.40
2019,06,11,00,02,14.40
2019,06,11,00,03,14.40
2019,06,11,00,04,14.40
2019,06,11,00,05,14.40
2019,06,11,00,06,14.40
2019,06,11,00,07,14.40
2019,06,11,00,08,14.40
2019,06,11,00,09,14.40
2019,06,11,00,10,14.40
2019,06,11,00,11,14.40
2019,06,11,00,12,14.40
2019,06,11,00,13,14.40
2019,06,11,00,14,14.30
2019,06,11,00,15,14.30
2019,06,11,00,16,14.30
2019,06,11,00,17,14.30
2019,06,11,00,18,14.30
2019,06,11,00,19,14.30
2019,06,11,00,20,14.30
2019,06,11,00,21,14.30
2019,06,11,00,22,14.20
2019,06,11,00,23,14.20
2019,06,11,00,24,14.20
2019,06,11,00,25,14.20
2019,06,11,00,26,14.10
2019,06,11,00,27,14.10
2019,06,11,00,28,14.10
2019,06,11,00,29,14.10
2019,06,11,00,30,14.10
2019,06,11,00,31,14.00
2019,06,11,00,32,14.00
2019,06,11,00,33,14.00
2019,06,11,00,34,14.00
2019,06,11,00,35,14.00
2019,06,11,00,36,14.00
2019,06,11,00,37,13.90
2019,06,11,00,38,13.90
2019,06,11,00,39,13.90
2019,06,11,00,40,13.90
2019,06,11,00,41,13.90
2019,06,11,00,42,13.90
2019,06,11,00,43,13.90
2019,06,11,00,44,13.90
2019,06,11,00,45,14.00
2019,06,11,00,46,14.00
2019,06,11,00,47,14.00
2019,06,11,00,48,14.00
2019,06,11,00,49,14.00
2019,06,11,00,50,14.10
2019,06,11,00,51,14.10
2019,06,11,00,52,14.10
2019,06,11,00,53,14.10
2019,06,11,00,54,14.10
2019,06,11,00,55,14.10
2019,06,11,00,56,14.10
2019,06,11,00,57,14.10
2019,06,11,00,58,14.10
2019,06,11,00,59,14.10
2019,06,11,01,00,14.10
2019,06,11,01,01,14.10
2019,06,11,01,02,14.00
2019,06,11,01,03,14.00
2019,06,11,01,04,14.00
2019,06,11,01,05,14.00
2019,06,11,01,06,13.90
2019,06,11,01,07,13.90
2019,06,11,01,08,13.90
2019,06,11,01,09,13.90
2019,06,11,01,10,13.90
2019,06,11,01,11,13.90
2019,06,11,01,12,13.90
2019,06,11,01,13,13.90
2019,06,11,01,14,13.90
2019,06,11,01,15,13.90
2019,06,11,01,16,13.90
2019,06,11,01,17,13.90
2019,06,11,01,18,13.90
2019,06,11,01,19,13.90
2019,06,11,01,20,13.90
2019,06,11,01,21,13.90
2019,06,11,01,22,13.90
2019,06,11,01,23,13.80
2019,06,11,01,24,13.80
2019,06,11,01,25,13.80
2019,06,11,01,26,13.80
2019,06,11,01,27,13.80
2019,06,11,01,28,13.80
2019,06,11,01,29,13.80
2019,06,11,01,30,13.80
2019,06,11,01,31,13.80
2019,06,11,01,32,13.80
2019,06,11,01,33,13.80
2019,06,11,01,34,13.80
2019,06,11,01,35,13.80
2019,06,11,01,36,13.80
2019,06,11,01,37,13.80
2019,06,11,01,38,13.80
2019,06,11,01,39,13.80
2019,06,11,01,40,13.80
2019,06,11,01,41,13.80
2019,06,11,01,42,13.70
2019,06,11,01,43,13.70
2019,06,11,01,44,13.70
2019,06,11,01,45,13.70
2019,06,11,01,46,13.70
2019,06,11,01,47,13.70
2019,06,11,01,48,13.60
2019,06,11,01,49,13.60
2019,06,11,01,50,13.60
2019,06,11,01,51,13.60
2019,06,11,01,52,13.50
2019,06,11,01,53,13.50
2019,06,11,01,54,13.40
2019,06,11,01,55,13.40
2019,06,11,01,56,13.40
2019,06,11,01,57,13.40
2019,06,11,01,58,13.40
2019,06,11,01,59,13.40
2019,06,11,02,00,13.30
2019,06,11,02,01,13.30
2019,06,11,02,02,13.30
2019,06,11,02,03,13.30
2019,06,11,02,04,13.30
2019,06,11,02,05,13.30
2019,06,11,02,06,13.30
2019,06,11,02,07,13.20
2019,06,11,02,08,13.20
2019,06,11,02,09,13.20
2019,06,11,02,10,13.20
2019,06,11,02,11,13.20
2019,06,11,02,12,13.20
2019,06,11,02,13,13.20
2019,06,11,02,14,13.20
2019,06,11,02,15,13.20
2019,06,11,02,16,13.10
2019,06,11,02,17,13.10
2019,06,11,02,18,13.10
2019,06,11,02,19,13.10
2019,06,11,02,20,13.10
2019,06,11,02,21,13.10
2019,06,11,02,22,13.10
2019,06,11,02,23,13.10
2019,06,11,02,24,13.10
2019,06,11,02,25,13.10
2019,06,11,02,26,13.10
2019,06,11,02,27,13.10
2019,06,11,02,28,13.10
2019,06,11,02,29,13.10
2019,06,11,02,30,13.10
2019,06,11,02,31,13.10
2019,06,11,02,32,13.00
2019,06,11,02,33,13.00
2019,06,11,02,34,13.00
2019,06,11,02,35,13.00
2019,06,11,02,36,13.00
2019,06,11,02,37,13.00
2019,06,11,02,38,13.00
2019,06,11,02,39,12.90
2019,06,11,02,40,12.90
2019,06,11,02,41,12.90
2019,06,11,02,42,12.90
2019,06,11,02,43,12.90
2019,06,11,02,44,12.90
2019,06,11,02,45,12.90
2019,06,11,02,46,12.90
2019,06,11,02,47,12.90
2019,06,11,02,48,12.90
2019,06,11,02,49,12.80
2019,06,11,02,50,12.90
2019,06,11,02,51,12.80
2019,06,11,02,52,12.80
2019,06,11,02,53,12.90
2019,06,11,02,54,12.90
2019,06,11,02,55,12.90
2019,06,11,02,56,12.90
2019,06,11,02,57,12.90
2019,06,11,02,58,12.90
2019,06,11,02,59,12.90
2019,06,11,03,00,12.90
2019,06,11,03,01,12.80
2019,06,11,03,02,12.80
2019,06,11,03,03,12.80
2019,06,11,03,04,12.80
2019,06,11,03,05,12.80
2019,06,11,03,06,12.80
2019,06,11,03,07,12.80
2019,06,11,03,08,12.80
2019,06,11,03,09,12.80
2019,06,11,03,10,12.80
2019,06,11,03,11,12.80
2019,06,11,03,12,12.70
2019,06,11,03,13,12.70
2019,06,11,03,14,12.70
2019,06,11,03,15,12.70
2019,06,11,03,16,12.70
2019,06,11,03,17,12.70
2019,06,11,03,18,12.70
2019,06,11,03,19,12.70
2019,06,11,03,20,12.70
2019,06,11,03,21,12.70
2019,06,11,03,22,12.80
2019,06,11,03,23,12.80
2019,06,11,03,24,12.80
2019,06,11,03,25,12.80
2019,06,11,03,26,12.80
2019,06,11,03,27,12.80
2019,06,11,03,28,12.80
2019,06,11,03,29,12.70
2019,06,11,03,30,12.70
2019,06,11,03,31,12.70
2019,06,11,03,32,12.70
2019,06,11,03,33,12.70
2019,06,11,03,34,12.70
2019,06,11,03,35,12.70
2019,06,11,03,36,12.70
2019,06,11,03,37,12.70
2019,06,11,03,38,12.70
2019,06,11,03,39,12.70
2019,06,11,03,40,12.70
2019,06,11,03,41,12.70
2019,06,11,03,42,12.70
2019,06,11,03,43,12.70
2019,06,11,03,44,12.70
2019,06,11,03,45,12.70
2019,06,11,03,46,12.70
2019,06,11,03,47,12.70
2019,06,11,03,48,12.70
2019,06,11,03,49,12.70
2019,06,11,03,50,12.70
2019,06,11,03,51,12.70
2019,06,11,03,52,12.70
2019,06,11,03,53,12.70
2019,06,11,03,54,12.70
2019,06,11,03,55,12.80
2019,06,11,03,56,12.80
2019,06,11,03,57,12.80
2019,06,11,03,58,12.80
2019,06,11,03,59,12.80
2019,06,11,04,00,12.80
2019,06,11,04,01,12.80
2019,06,11,04,02,12.80
2019,06,11,04,03,12.80
2019,06,11,04,04,12.80
2019,06,11,04,05,12.80
2019,06,11,04,06,12.80
2019,06,11,04,07,12.80
2019,06,11,04,08,12.80
2019,06,11,04,09,12.80
2019,06,11,04,10,12.80
2019,06,11,04,11,12.80
2019,06,11,04,12,12.80
2019,06,11,04,13,12.80
2019,06,11,04,14,12.80
2019,06,11,04,15,12.80
2019,06,11,04,16,12.80
2019,06,11,04,17,12.80
2019,06,11,04,18,12.80
2019,06,11,04,19,12.80
2019,06,11,04,20,12.80
2019,06,11,04,21,12.80
2019,06,11,04,22,12.80
2019,06,11,04,23,12.80
2019,06,11,04,24,12.80
2019,06,11,04,25,12.80
2019,06,11,04,26,12.80
2019,06,11,04,27,12.80
2019,06,11,04,28,12.80
2019,06,11,04,29,12.80
2019,06,11,04,30,12.80
2019,06,11,04,31,12.80
2019,06,11,04,32,12.70
2019,06,11,04,33,12.70
2019,06,11,04,34,12.70
2019,06,11,04,35,12.70
2019,06,11,04,36,12.70
2019,06,11,04,37,12.70
2019,06,11,04,38,12.70
2019,06,11,04,39,12.80
2019,06,11,04,40,12.80
2019,06,11,04,41,12.80
2019,06,11,04,42,12.80
2019,06,11,04,43,12.80
2019,06,11,04,44,12.80
2019,06,11,04,45,12.80
2019,06,11,04,46,12.80
2019,06,11,04,47,12.80
2019,06,11,04,48,12.80
2019,06,11,04,49,12.80
2019,06,11,04,50,12.80
2019,06,11,04,51,12.70
2019,06,11,04,52,12.70
2019,06,11,04,53,12.70
2019,06,11,04,54,12.70
2019,06,11,04,55,12.70
2019,06,11,04,56,12.70
2019,06,11,04,57,12.70
2019,06,11,04,58,12.70
2019,06,11,04,59,12.70
2019,06,11,05,00,12.70
2019,06,11,05,01,12.70
2019,06,11,05,02,12.70
2019,06,11,05,03,12.70
2019,06,11,05,04,12.70
2019,06,11,05,05,12.70
2019,06,11,05,06,12.70
2019,06,11,05,07,12.70
2019,06,11,05,08,12.70
2019,06,11,05,09,12.70
2019,06,11,05,10,12.70
2019,06,11,05,11,12.70
2019,06,11,05,12,12.70
2019,06,11,05,13,12.70
2019,06,11,05,14,12.70
2019,06,11,05,15,12.70
2019,06,11,05,16,12.70
2019,06,11,05,17,12.70
2019,06,11,05,18,12.70
2019,06,11,05,19,12.70
2019,06,11,05,20,12.70
2019,06,11,05,21,12.70
2019,06,11,05,22,12.70
2019,06,11,05,23,12.70
2019,06,11,05,24,12.70
2019,06,11,05,25,12.70
2019,06,11,05,26,12.70
2019,06,11,05,27,12.70
2019,06,11,05,28,12.70
2019,06,11,05,29,12.70
2019,06,11,05,30,12.70
2019,06,11,05,31,12.70
2019,06,11,05,32,12.70
2019,06,11,05,33,12.70
2019,06,11,05,34,12.70
2019,06,11,05,35,12.70
2019,06,11,05,36,12.70
2019,06,11,05,37,12.70
2019,06,11,05,38,12.70
2019,06,11,05,39,12.70
2019,06,11,05,40,12.70
2019,06,11,05,41,12.70
2019,06,11,05,42,12.70
2019,06,11,05,43,12.70
2019,06,11,05,44,12.70
2019,06,11,05,45,12.70
2019,06,11,05,46,12.70
2019,06,11,05,47,12.70
2019,06,11,05,48,12.70
2019,06,11,05,49,12.70
2019,06,11,05,50,12.70
2019,06,11,05,51,12.70
2019,06,11,05,52,12.70
2019,06,11,05,53,12.70
2019,06,11,05,54,12.70
2019,06,11,05,55,12.70
2019,06,11,05,56,12.70
2019,06,11,05,57,12.70
2019,06,11,05,58,12.70
2019,06,11,05,59,12.70
2019,06,11,06,00,12.70
2019,06,11,06,01,12.80
2019,06,11,06,02,12.80
2019,06,11,06,03,12.80
2019,06,11,06,04,12.80
2019,06,11,06,05,12.80
2019,06,11,06,06,12.80
2019,06,11,06,07,12.80
2019,06,11,06,08,12.90
2019,06,11,06,09,12.90
2019,06,11,06,10,12.90
2019,06,11,06,11,12.90
2019,06,11,06,12,13.00
2019,06,11,06,13,13.00
2019,06,11,06,14,13.10
2019,06,11,06,15,13.10
2019,06,11,06,16,13.10
2019,06,11,06,17,13.20
2019,06,11,06,18,13.20
2019,06,11,06,19,13.20
2019,06,11,06,20,13.20
2019,06,11,06,21,13.30
2019,06,11,06,22,13.30
2019,06,11,06,23,13.30
2019,06,11,06,24,13.30
2019,06,11,06,25,13.40
2019,06,11,06,26,13.40
2019,06,11,06,27,13.40
2019,06,11,06,28,13.50
2019,06,11,06,29,13.50
2019,06,11,06,30,13.60
2019,06,11,06,31,13.60
2019,06,11,06,32,13.70
2019,06,11,06,33,13.80
2019,06,11,06,34,13.80
2019,06,11,06,35,13.90
2019,06,11,06,36,14.00
2019,06,11,06,37,14.00
2019,06,11,06,38,14.10
2019,06,11,06,39,14.20
2019,06,11,06,40,14.30
2019,06,11,06,41,14.30
2019,06,11,06,42,14.40
2019,06,11,06,43,14.50
2019,06,11,06,44,14.60
2019,06,11,06,45,14.70
2019,06,11,06,46,14.80
2019,06,11,06,47,14.80
2019,06,11,06,48,14.90
2019,06,11,06,49,14.90
2019,06,11,06,50,14.90
2019,06,11,06,51,15.00
2019,06,11,06,52,15.10
2019,06,11,06,53,15.10
2019,06,11,06,54,15.10
2019,06,11,06,55,15.10
2019,06,11,06,56,15.20
2019,06,11,06,57,15.20
2019,06,11,06,58,15.20
2019,06,11,06,59,15.20
2019,06,11,07,00,15.30
2019,06,11,07,01,15.30
2019,06,11,07,02,15.40
2019,06,11,07,03,15.50
2019,06,11,07,04,15.60
2019,06,11,07,05,15.70
2019,06,11,07,06,15.80
2019,06,11,07,07,15.90
2019,06,11,07,08,16.10
2019,06,11,07,09,16.20
2019,06,11,07,10,16.30
2019,06,11,07,11,16.50
2019,06,11,07,12,16.60
2019,06,11,07,13,16.70
2019,06,11,07,14,16.90
2019,06,11,07,15,17.00
2019,06,11,07,16,17.10
2019,06,11,07,17,17.20
2019,06,11,07,18,17.30
2019,06,11,07,19,17.40
2019,06,11,07,20,17.50
2019,06,11,07,21,17.50
2019,06,11,07,22,17.60
2019,06,11,07,23,17.60
2019,06,11,07,24,17.70
2019,06,11,07,25,17.70
2019,06,11,07,26,17.80
2019,06,11,07,27,17.80
2019,06,11,07,28,17.80
2019,06,11,07,29,17.90
2019,06,11,07,30,17.90
2019,06,11,07,31,18.00
2019,06,11,07,32,18.10
2019,06,11,07,33,18.10
2019,06,11,07,34,18.20
2019,06,11,07,35,18.20
2019,06,11,07,36,18.30
2019,06,11,07,37,18.30
2019,06,11,07,38,18.40
2019,06,11,07,39,18.40
2019,06,11,07,40,18.50
2019,06,11,07,41,18.60
2019,06,11,07,42,18.60
2019,06,11,07,43,18.70
2019,06,11,07,44,18.80
2019,06,11,07,45,18.80
2019,06,11,07,46,18.90
2019,06,11,07,47,19.00
2019,06,11,07,48,19.10
2019,06,11,07,49,19.10
2019,06,11,07,50,19.20
2019,06,11,07,51,19.20
2019,06,11,07,52,19.20
2019,06,11,07,53,19.20
2019,06,11,07,54,19.20
2019,06,11,07,55,19.30
2019,06,11,07,56,19.30
2019,06,11,07,57,19.40
2019,06,11,07,58,19.40
2019,06,11,07,59,19.40
2019,06,11,08,00,19.50
2019,06,11,08,01,19.60
2019,06,11,08,02,19.60
2019,06,11,08,03,19.60
2019,06,11,08,04,19.70
2019,06,11,08,05,19.70
2019,06,11,08,06,19.80
2019,06,11,08,07,19.80
2019,06,11,08,08,19.80
2019,06,11,08,09,19.80
2019,06,11,08,10,19.80
2019,06,11,08,11,19.90
2019,06,11,08,12,19.90
2019,06,11,08,13,19.90
2019,06,11,08,14,19.90
2019,06,11,08,15,19.90
2019,06,11,08,16,19.90
2019,06,11,08,17,20.00
2019,06,11,08,18,20.00
2019,06,11,08,19,20.10
2019,06,11,08,20,20.10
2019,06,11,08,21,20.20
2019,06,11,08,22,20.20
2019,06,11,08,23,20.20
2019,06,11,08,24,20.20
2019,06,11,08,25,20.20
2019,06,11,08,26,20.20
2019,06,11,08,27,20.20
2019,06,11,08,28,20.20
2019,06,11,08,29,20.20
2019,06,11,08,30,20.20
2019,06,11,08,31,20.30
2019,06,11,08,32,20.30
2019,06,11,08,33,20.40
2019,06,11,08,34,20.40
2019,06,11,08,35,20.50
2019,06,11,08,36,20.50
2019,06,11,08,37,20.60
2019,06,11,08,38,20.60
2019,06,11,08,39,20.70
2019,06,11,08,40,20.70
2019,06,11,08,41,20.70
2019,06,11,08,42,20.70
2019,06,11,08,43,20.70
2019,06,11,08,44,20.70
2019,06,11,08,45,20.70
2019,06,11,08,46,20.70
2019,06,11,08,47,20.60
2019,06,11,08,48,20.60
2019,06,11,08,49,20.70
2019,06,11,08,50,20.70
2019,06,11,08,51,20.70
2019,06,11,08,52,20.70
2019,06,11,08,53,20.70
2019,06,11,08,54,20.70
2019,06,11,08,55,20.80
2019,06,11,08,56,20.80
2019,06,11,08,57,20.70
2019,06,11,08,58,20.70
2019,06,11,08,59,20.70
2019,06,11,09,00,20.70
2019,06,11,09,01,20.80
2019,06,11,09,02,20.80
2019,06,11,09,03,20.80
2019,06,11,09,04,20.80
2019,06,11,09,05,20.80
2019,06,11,09,06,20.80
2019,06,11,09,07,20.90
2019,06,11,09,08,21.00
2019,06,11,09,09,21.10
2019,06,11,09,10,21.10
2019,06,11,09,11,21.10
2019,06,11,09,12,21.20
2019,06,11,09,13,21.20
2019,06,11,09,14,21.20
2019,06,11,09,15,21.20
2019,06,11,09,16,21.20
2019,06,11,09,17,21.20
2019,06,11,09,18,21.30
2019,06,11,09,19,21.40
2019,06,11,09,20,21.50
2019,06,11,09,21,21.60
2019,06,11,09,22,21.60
2019,06,11,09,23,21.60
2019,06,11,09,24,21.60
2019,06,11,09,25,21.60
2019,06,11,09,26,21.60
2019,06,11,09,27,21.60
2019,06,11,09,28,21.60
2019,06,11,09,29,21.60
2019,06,11,09,30,21.60
2019,06,11,09,31,21.60
2019,06,11,09,32,21.60
2019,06,11,09,33,21.60
2019,06,11,09,34,21.60
2019,06,11,09,35,21.60
2019,06,11,09,36,21.60
2019,06,11,09,37,21.60
2019,06,11,09,38,21.60
2019,06,11,09,39,21.60
2019,06,11,09,40,21.60
2019,06,11,09,41,21.60
2019,06,11,09,42,21.60
2019,06,11,09,43,21.60
2019,06,11,09,44,21.50
2019,06,11,09,45,21.50
2019,06,11,09,46,21.60
2019,06,11,09,47,21.60
2019,06,11,09,48,21.60
2019,06,11,09,49,21.60
2019,06,11,09,50,21.60
2019,06,11,09,51,21.60
2019,06,11,09,52,21.60
2019,06,11,09,53,21.70
2019,06,11,09,54,21.70
2019,06,11,09,55,21.70
2019,06,11,09,56,21.70
2019,06,11,09,57,21.80
2019,06,11,09,58,21.80
2019,06,11,09,59,21.80
2019,06,11,10,00,21.90
2019,06,11,10,01,21.90
2019,06,11,10,02,21.90
2019,06,11,10,03,21.90
2019,06,11,10,04,21.90
2019,06,11,10,05,21.90
2019,06,11,10,06,21.90
2019,06,11,10,07,21.80
2019,06,11,10,08,21.80
2019,06,11,10,09,21.80
2019,06,11,10,10,21.80
2019,06,11,10,11,21.80
2019,06,11,10,12,21.80
2019,06,11,10,13,21.80
2019,06,11,10,14,21.80
2019,06,11,10,15,21.80
2019,06,11,10,16,21.80
2019,06,11,10,17,21.80
2019,06,11,10,18,21.80
2019,06,11,10,19,21.80
2019,06,11,10,20,21.80
2019,06,11,10,21,21.90
2019,06,11,10,22,22.00
2019,06,11,10,23,22.00
2019,06,11,10,24,22.10
2019,06,11,10,25,22.20
2019,06,11,10,26,22.20
2019,06,11,10,27,22.20
2019,06,11,10,28,22.20
2019,06,11,10,29,22.20
2019,06,11,10,30,22.30
2019,06,11,10,31,22.30
2019,06,11,10,32,22.30
2019,06,11,10,33,22.20
2019,06,11,10,34,22.20
2019,06,11,10,35,22.20
2019,06,11,10,36,22.20
2019,06,11,10,37,22.20
2019,06,11,10,38,22.20
2019,06,11,10,39,22.20
2019,06,11,10,40,22.20
2019,06,11,10,41,22.20
2019,06,11,10,42,22.20
2019,06,11,10,43,22.30
2019,06,11,10,44,22.30
2019,06,11,10,45,22.40
2019,06,11,10,46,22.40
2019,06,11,10,47,22.40
2019,06,11,10,48,22.50
2019,06,11,10,49,22.60
2019,06,11,10,50,22.60
2019,06,11,10,51,22.60
2019,06,11,10,52,22.60
2019,06,11,10,53,22.60
2019,06,11,10,54,22.60
2019,06,11,10,55,22.60
2019,06,11,10,56,22.70
2019,06,11,10,57,22.70
2019,06,11,10,58,22.60
2019,06,11,10,59,22.60
2019,06,11,11,00,22.60
2019,06,11,11,01,22.60
2019,06,11,11,02,22.60
2019,06,11,11,03,22.70
2019,06,11,11,04,22.70
2019,06,11,11,05,22.70
2019,06,11,11,06,22.70
2019,06,11,11,07,22.70
2019,06,11,11,08,22.70
2019,06,11,11,09,22.60
2019,06,11,11,10,22.60
2019,06,11,11,11,22.60
2019,06,11,11,12,22.60
2019,06,11,11,13,22.60
2019,06,11,11,14,22.60
2019,06,11,11,15,22.70
2019,06,11,11,16,22.70
2019,06,11,11,17,22.70
2019,06,11,11,18,22.80
2019,06,11,11,19,22.80
2019,06,11,11,20,22.90
2019,06,11,11,21,23.00
2019,06,11,11,22,23.10
2019,06,11,11,23,23.10
2019,06,11,11,24,23.10
2019,06,11,11,25,23.10
2019,06,11,11,26,23.10
2019,06,11,11,27,23.10
2019,06,11,11,28,23.10
2019,06,11,11,29,23.00
2019,06,11,11,30,23.00
2019,06,11,11,31,23.00
2019,06,11,11,32,23.00
2019,06,11,11,33,23.10
2019,06,11,11,34,23.20
2019,06,11,11,35,23.20
2019,06,11,11,36,23.20
2019,06,11,11,37,23.10
2019,06,11,11,38,23.10
2019,06,11,11,39,23.10
2019,06,11,11,40,23.10
2019,06,11,11,41,23.10
2019,06,11,11,42,23.20
2019,06,11,11,43,23.20
2019,06,11,11,44,23.30
2019,06,11,11,45,23.30
2019,06,11,11,46,23.30
2019,06,11,11,47,23.30
2019,06,11,11,48,23.40
2019,06,11,11,49,23.40
2019,06,11,11,50,23.50
2019,06,11,11,51,23.60
2019,06,11,11,52,23.70
2019,06,11,11,53,23.70
2019,06,11,11,54,23.80
2019,06,11,11,55,23.80
2019,06,11,11,56,23.80
2019,06,11,11,57,23.80
2019,06,11,11,58,23.90
2019,06,11,11,59,24.00
2019,06,11,12,00,24.10
2019,06,11,12,01,24.10
2019,06,11,12,02,24.10
2019,06,11,12,03,24.10
2019,06,11,12,04,24.10
2019,06,11,12,05,24.20
2019,06,11,12,06,24.30
2019,06,11,12,07,24.30
2019,06,11,12,08,24.40
2019,06,11,12,09,24.40
2019,06,11,12,10,24.50
2019,06,11,12,11,24.50
2019,06,11,12,12,24.40
2019,06,11,12,13,24.40
2019,06,11,12,14,24.40
2019,06,11,12,15,24.40
2019,06,11,12,16,24.40
2019,06,11,12,17,24.40
2019,06,11,12,18,24.40
2019,06,11,12,19,24.40
2019,06,11,12,20,24.50
2019,06,11,12,21,24.50
2019,06,11,12,22,24.60
2019,06,11,12,23,24.70
2019,06,11,12,24,24.70
2019,06,11,12,25,24.70
2019,06,11,12,26,24.60
2019,06,11,12,27,24.60
2019,06,11,12,28,24.60
2019,06,11,12,29,24.60
2019,06,11,12,30,24.70
2019,06,11,12,31,24.80
2019,06,11,12,32,24.80
2019,06,11,12,33,24.90
2019,06,11,12,34,24.90
2019,06,11,12,35,24.90
2019,06,11,12,36,24.90
2019,06,11,12,37,24.90
2019,06,11,12,38,25.00
2019,06,11,12,39,25.10
2019,06,11,12,40,25.20
2019,06,11,12,41,25.30
2019,06,11,12,42,25.40
2019,06,11,12,43,25.40
2019,06,11,12,44,25.50
2019,06,11,12,45,25.60
2019,06,11,12,46,25.70
2019,06,11,12,47,25.70
2019,06,11,12,48,25.60
2019,06,11,12,49,25.60
2019,06,11,12,50,25.50
2019,06,11,12,51,25.50
2019,06,11,12,52,25.40
2019,06,11,12,53,25.40
2019,06,11,12,54,25.40
2019,06,11,12,55,25.40
2019,06,11,12,56,25.50
2019,06,11,12,57,25.60
2019,06,11,12,58,25.70
2019,06,11,12,59,25.70
2019,06,11,13,00,25.60
2019,06,11,13,01,25.50
2019,06,11,13,02,25.40
2019,06,11,13,03,25.30
2019,06,11,13,04,25.20
2019,06,11,13,05,25.20
2019,06,11,13,06,25.20
2019,06,11,13,07,25.20
2019,06,11,13,08,25.20
2019,06,11,13,09,25.20
2019,06,11,13,10,25.30
2019,06,11,13,11,25.30
2019,06,11,13,12,25.20
2019,06,11,13,13,25.20
2019,06,11,13,14,25.10
2019,06,11,13,15,25.20
2019,06,11,13,16,25.30
2019,06,11,13,17,25.30
2019,06,11,13,18,25.40
2019,06,11,13,19,25.50
2019,06,11,13,20,25.50
2019,06,11,13,21,25.60
2019,06,11,13,22,25.50
2019,06,11,13,23,25.50
2019,06,11,13,24,25.40
2019,06,11,13,25,25.50
2019,06,11,13,26,25.50
2019,06,11,13,27,25.60
2019,06,11,13,28,25.60
2019,06,11,13,29,25.70
2019,06,11,13,30,25.80
2019,06,11,13,31,25.70
2019,06,11,13,32,25.60
2019,06,11,13,33,25.50
2019,06,11,13,34,25.50
2019,06,11,13,35,25.40
2019,06,11,13,36,25.40
2019,06,11,13,37,25.30
2019,06,11,13,38,25.30
2019,06,11,13,39,25.30
2019,06,11,13,40,25.40
2019,06,11,13,41,25.40
2019,06,11,13,42,25.50
2019,06,11,13,43,25.50
2019,06,11,13,44,25.40
2019,06,11,13,45,25.50
2019,06,11,13,46,25.60
2019,06,11,13,47,25.70
2019,06,11,13,48,25.70
2019,06,11,13,49,25.70
2019,06,11,13,50,25.80
2019,06,11,13,51,25.80
2019,06,11,13,52,25.80
2019,06,11,13,53,25.80
2019,06,11,13,54,25.70
2019,06,11,13,55,25.70
2019,06,11,13,56,25.60
2019,06,11,13,57,25.50
2019,06,11,13,58,25.40
2019,06,11,13,59,25.40
2019,06,11,14,00,25.50
2019,06,11,14,01,25.50
2019,06,11,14,02,25.50
2019,06,11,14,03,25.60
2019,06,11,14,04,25.60
2019,06,11,14,05,25.70
2019,06,11,14,06,25.70
2019,06,11,14,07,25.80
2019,06,11,14,08,25.80
2019,06,11,14,09,25.90
2019,06,11,14,10,26.00
2019,06,11,14,11,26.00
2019,06,11,14,12,26.00
2019,06,11,14,13,26.00
2019,06,11,14,14,25.90
2019,06,11,14,15,25.90
2019,06,11,14,16,25.90
2019,06,11,14,17,25.90
2019,06,11,14,18,25.90
2019,06,11,14,19,26.00
2019,06,11,14,20,26.00
2019,06,11,14,21,26.10
2019,06,11,14,22,26.10
2019,06,11,14,23,26.00
2019,06,11,14,24,26.00
2019,06,11,14,25,26.00
2019,06,11,14,26,26.00
2019,06,11,14,27,25.90
2019,06,11,14,28,25.90
2019,06,11,14,29,25.90
2019,06,11,14,30,25.90
2019,06,11,14,31,25.90
2019,06,11,14,32,25.90
2019,06,11,14,33,25.90
2019,06,11,14,34,25.90
2019,06,11,14,35,26.00
2019,06,11,14,36,26.00
2019,06,11,14,37,26.10
2019,06,11,14,38,26.10
2019,06,11,14,39,26.10
2019,06,11,14,40,26.10
2019,06,11,14,41,26.10
2019,06,11,14,42,26.10
2019,06,11,14,43,26.20
2019,06,11,14,44,26.30
2019,06,11,14,45,26.40
2019,06,11,14,46,26.50
2019,06,11,14,47,26.50
2019,06,11,14,48,26.50
2019,06,11,14,49,26.50
2019,06,11,14,50,26.60
2019,06,11,14,51,26.60
2019,06,11,14,52,26.70
2019,06,11,14,53,26.60
2019,06,11,14,54,26.50
2019,06,11,14,55,26.40
2019,06,11,14,56,26.40
2019,06,11,14,57,26.40
2019,06,11,14,58,26.40
2019,06,11,14,59,26.40
2019,06,11,15,00,26.40
2019,06,11,15,01,26.40
2019,06,11,15,02,26.40
2019,06,11,15,03,26.50
2019,06,11,15,04,26.50
2019,06,11,15,05,26.50
2019,06,11,15,06,26.50
2019,06,11,15,07,26.60
2019,06,11,15,08,26.70
2019,06,11,15,09,26.90
2019,06,11,15,10,27.00
2019,06,11,15,11,27.10
2019,06,11,15,12,27.20
2019,06,11,15,13,27.20
2019,06,11,15,14,27.20
2019,06,11,15,15,27.20
2019,06,11,15,16,27.30
2019,06,11,15,17,27.30
2019,06,11,15,18,27.30
2019,06,11,15,19,27.40
2019,06,11,15,20,27.40
2019,06,11,15,21,27.40
2019,06,11,15,22,27.40
2019,06,11,15,23,27.50
2019,06,11,15,24,27.50
2019,06,11,15,25,27.50
2019,06,11,15,26,27.50
2019,06,11,15,27,27.40
2019,06,11,15,28,27.30
2019,06,11,15,29,27.20
2019,06,11,15,30,27.20
2019,06,11,15,31,27.20
2019,06,11,15,32,27.20
2019,06,11,15,33,27.20
2019,06,11,15,34,27.20
2019,06,11,15,35,27.30
2019,06,11,15,36,27.30
2019,06,11,15,37,27.40
2019,06,11,15,38,27.40
2019,06,11,15,39,27.40
2019,06,11,15,40,27.40
2019,06,11,15,41,27.50
2019,06,11,15,42,27.60
2019,06,11,15,43,27.60
2019,06,11,15,44,27.70
2019,06,11,15,45,27.70
2019,06,11,15,46,27.80
2019,06,11,15,47,27.80
2019,06,11,15,48,27.80
2019,06,11,15,49,27.90
2019,06,11,15,50,27.90
2019,06,11,15,51,27.90
2019,06,11,15,52,27.90
2019,06,11,15,53,27.90
2019,06,11,15,54,28.00
2019,06,11,15,55,27.90
2019,06,11,15,56,27.90
2019,06,11,15,57,27.80
2019,06,11,15,58,27.80
2019,06,11,15,59,27.80
2019,06,11,16,00,27.70
2019,06,11,16,01,27.70
2019,06,11,16,02,27.60
2019,06,11,16,03,27.70
2019,06,11,16,04,27.70
2019,06,11,16,05,27.80
2019,06,11,16,06,27.90
2019,06,11,16,07,27.90
2019,06,11,16,08,28.00
2019,06,11,16,09,28.10
2019,06,11,16,10,28.20
2019,06,11,16,11,28.20
2019,06,11,16,12,28.20
2019,06,11,16,13,28.10
2019,06,11,16,14,28.10
2019,06,11,16,15,28.00
2019,06,11,16,16,27.90
2019,06,11,16,17,27.90
2019,06,11,16,18,27.90
2019,06,11,16,19,27.90
2019,06,11,16,20,27.90
2019,06,11,16,21,27.80
2019,06,11,16,22,27.80
2019,06,11,16,23,27.80
2019,06,11,16,24,27.80
2019,06,11,16,25,27.80
2019,06,11,16,26,27.80
2019,06,11,16,27,27.70
2019,06,11,16,28,27.70
2019,06,11,16,29,27.70
2019,06,11,16,30,27.70
2019,06,11,16,31,27.80
2019,06,11,16,32,27.90
2019,06,11,16,33,27.90
2019,06,11,16,34,28.00
2019,06,11,16,35,27.90
2019,06,11,16,36,27.90
2019,06,11,16,37,27.90
2019,06,11,16,38,28.00
2019,06,11,16,39,28.00
2019,06,11,16,40,28.10
2019,06,11,16,41,28.10
2019,06,11,16,42,28.10
2019,06,11,16,43,28.10
2019,06,11,16,44,28.10
2019,06,11,16,45,28.20
2019,06,11,16,46,28.20
2019,06,11,16,47,28.20
2019,06,11,16,48,28.20
2019,06,11,16,49,28.20
2019,06,11,16,50,28.30
2019,06,11,16,51,28.30
2019,06,11,16,52,28.40
2019,06,11,16,53,28.50
2019,06,11,16,54,28.50
2019,06,11,16,55,28.60
2019,06,11,16,56,28.60
2019,06,11,16,57,28.60
2019,06,11,16,58,28.60
2019,06,11,16,59,28.50
2019,06,11,17,00,28.30
2019,06,11,17,01,27.90
2019,06,11,17,02,27.50
2019,06,11,17,03,27.10
2019,06,11,17,04,26.80
2019,06,11,17,05,26.50
2019,06,11,17,06,26.20
2019,06,11,17,07,26.00
2019,06,11,17,08,25.80
2019,06,11,17,09,25.50
2019,06,11,17,10,25.20
2019,06,11,17,11,24.90
2019,06,11,17,12,24.50
2019,06,11,17,13,24.20
2019,06,11,17,14,23.90
2019,06,11,17,15,23.70
2019,06,11,17,16,23.50
2019,06,11,17,17,23.30
2019,06,11,17,18,23.10
2019,06,11,17,19,23.00